User: anonymous   Login
Location: Unspecified
(0.0000°N, 0.0000°E)
Time: 20:21:13
(UTC+00:00)
Language:

FLOCK 4BE 24 - Orbit

View from above orbital plane
View from above orbital plane
View from above satellite
View from above satellite

Ground track
Ground track

The orbit is defined by the following mean orbital elements,

1 60505U          26144.81678302 +.00000000 +00000-0 +40585-3 0 00006
2 60505  97.3712 228.9635 0003510  34.6753 325.4723 15.42074045    07
Epoch (UTC): 24 May 2026 19:36:10
Eccentricity: 0.0003510
inclination: 97.3712°
perigee height: 438 km
apogee height: 442 km
right ascension of ascending node: 228.9635°
argument of perigee: 34.6753°
revolutions per day: 15.42074045
mean anomaly at epoch: 325.4723°

The dashed part of the orbit path shows where the satellite is in the earth's shadow,  

DLR